STRIX-ALPHA

Last updated on Fri Jan 15 2021 00:02:02 GMT+0000 (Coordinated Universal Time)

1 47253U 20098A 21014.80173453 .00001793 00000-0 84389-4 0 9995 2 47253 97.3744 271.7560 0013288 186.8382 260.2917 15.20766078 4613
UTC large
Height (km)
Speed (km/s)
/
Latitude / Longitude
Inclination (degrees)
Orbital Period (minutes)
Azimuth
Elevation
Range (km)
Doppler Factor

Next 0 passes for location: London (51.5072 / 0.1276)

Sorry there are no passes over London.